GW4996 Weather Reports


Display with metric or nautical units.
time (UTC)temp
F
wind
direction
speed
MPH
gust
MPH
rain 1hr
in
rain 24hr
in
rain mn
in
humidity
%
barometer
mb
20260503044007 80 244 2.0 7.0 0.00 0.00 0.00 80 1014.3
20260503043506 80 244 3.0 8.0 0.00 0.00 0.00 80 1014.2
20260503043022 80 243 1.0 8.0 0.00 0.00 0.00 79 1014.2
20260503042508 80 243 4.0 8.0 0.00 0.00 0.00 79 1014.3
20260503042011 80 244 4.0 8.0 0.00 0.00 0.00 79 1014.3
20260503041506 80 244 3.0 9.0 0.00 0.00 0.00 79 1014.3
20260503041005 81 246 5.0 9.0 0.00 0.00 0.00 79 1014.3
20260503040511 81 250 4.0 10.0 0.00 0.00 0.00 78 1014.4
20260503040011 81 249 4.0 10.0 0.00 0.00 0.00 78 1014.3
20260503035506 81 254 3.0 8.0 0.00 0.00 0.00 78 1014.3
20260503035009 81 246 3.0 8.0 0.00 0.00 0.00 78 1014.2
20260503034514 81 244 3.0 9.0 0.00 0.00 0.00 77 1014.2
20260503034006 81 244 4.0 9.0 0.00 0.00 0.00 77 1014.1
20260503033505 81 243 1.0 9.0 0.00 0.00 0.00 77 1014.1
20260503033025 81 243 4.0 9.0 0.00 0.00 0.00 76 1013.9
20260503032506 81 244 2.0 7.0 0.00 0.00 0.00 76 1013.7
20260503032008 81 243 3.0 7.0 0.00 0.00 0.00 76 1013.6
20260503031524 81 244 1.0 8.0 0.00 0.00 0.00 75 1013.6
20260503031009 81 244 3.0 10.0 0.00 0.00 0.00 75 1013.7
20260503030512 81 246 6.0 11.0 0.00 0.00 0.00 75 1013.7
20260503030007 81 261 2.0 11.0 0.00 0.00 0.00 75 1013.7
20260503025502 82 268 4.0 11.0 0.00 0.00 0.00 74 1013.7
20260503025005 82 256 2.0 10.0 0.00 0.00 0.00 74 1013.5
20260503024513 82 254 5.0 10.0 0.00 0.00 0.00 74 1013.6
20260503024006 82 249 4.0 9.0 0.00 0.00 0.00 73 1013.5
20260503023507 82 252 4.0 9.0 0.00 0.00 0.00 73 1013.6
20260503023016 82 240 4.0 10.0 0.00 0.00 0.00 73 1013.6
20260503022505 82 244 3.0 10.0 0.00 0.00 0.00 72 1013.6
20260503022006 82 250 4.0 9.0 0.00 0.00 0.00 72 1013.6
20260503021520 82 247 2.0 9.0 0.00 0.00 0.00 71 1013.5
20260503021007 82 248 4.0 9.0 0.00 0.00 0.00 71 1013.5
20260503020506 83 246 5.0 10.0 0.00 0.00 0.00 70 1013.4
20260503020027 83 236 3.0 12.0 0.00 0.00 0.00 69 1013.4
20260503015508 83 239 7.0 12.0 0.00 0.00 0.00 69 1013.5
20260503015010 83 246 5.0 12.0 0.00 0.00 0.00 68 1013.5
20260503014527 83 251 3.0 10.0 0.00 0.00 0.00 67 1013.4
20260503014004 83 245 6.0 12.0 0.00 0.00 0.00 67 1013.5
20260503013504 84 239 5.0 12.0 0.00 0.00 0.00 66 1013.5
20260503013018 84 241 5.0 12.0 0.00 0.00 0.00 65 1013.5
20260503012506 84 246 5.0 12.0 0.00 0.00 0.00 64 1013.4
20260503012007 84 246 5.0 14.0 0.00 0.00 0.00 64 1013.3
20260503011520 84 259 6.0 14.0 0.00 0.00 0.00 63 1013.2
20260503011007 84 263 7.0 14.0 0.00 0.00 0.00 62 1013.2
20260503010509 84 251 5.0 13.0 0.00 0.00 0.00 61 1013.0
20260503010025 85 252 5.0 10.0 0.00 0.00 0.00 60 1013.0
20260503005508 85 250 6.0 10.0 0.00 0.00 0.00 60 1012.9
20260503005010 85 263 4.0 13.0 0.00 0.00 0.00 59 1012.9
20260503004551 85 246 8.0 13.0 0.00 0.00 0.00 59 1012.9
20260503004011 85 268 6.0 13.0 0.00 0.00 0.00 58 1012.9
20260503003507 85 253 9.0 13.0 0.00 0.00 0.00 57 1012.9
20260503003040 86 253 8.0 13.0 0.00 0.00 0.00 56 1012.8
20260503002504 86 259 8.0 13.0 0.00 0.00 0.00 56 1012.7
20260503002007 86 275 6.0 18.0 0.00 0.00 0.00 55 1012.5
20260503001538 86 259 6.0 18.0 0.00 0.00 0.00 54 1012.4
20260503001007 87 260 9.0 15.0 0.00 0.00 0.00 54 1012.4
20260503000506 87 261 10.0 15.0 0.00 0.00 0.00 53 1012.3
20260503000022 87 248 6.0 15.0 0.00 0.00 0.00 51 1012.1
20260502235510 88 252 6.0 18.0 0.00 0.00 0.00 50 1012.1
20260502235008 88 271 8.0 18.0 0.00 0.00 0.00 49 1012.0
20260502234527 88 255 10.0 16.0 0.00 0.00 0.00 48 1012.0
20260502234009 89 253 9.0 15.0 0.00 0.00 0.00 48 1011.9
20260502233507 89 249 9.0 15.0 0.00 0.00 0.00 47 1011.8
20260502233028 89 255 8.0 13.0 0.00 0.00 0.00 46 1011.7
20260502232507 90 255 5.0 13.0 0.00 0.00 0.00 45 1011.5
20260502232007 90 243 6.0 13.0 0.00 0.00 0.00 44 1011.4
20260502231526 90 267 7.0 13.0 0.00 0.00 0.00 43 1011.3
20260502231005 90 228 6.0 13.0 0.00 0.00 0.00 42 1011.2
20260502230507 91 246 7.0 11.0 0.00 0.00 0.00 41 1011.1
20260502230018 91 242 6.0 14.0 0.00 0.00 0.00 41 1011.1
20260502225507 91 245 7.0 14.0 0.00 0.00 0.00 40 1011.0
20260502225014 92 236 8.0 13.0 0.00 0.00 0.00 39 1010.9
20260502224522 92 237 8.0 15.0 0.00 0.00 0.00 40 1010.9
20260502224009 93 271 8.0 15.0 0.00 0.00 0.00 39 1010.8
20260502223510 93 259 8.0 11.0 0.00 0.00 0.00 39 1010.8
20260502223031 93 263 5.0 15.0 0.00 0.00 0.00 39 1010.8
20260502222508 93 231 7.0 16.0 0.00 0.00 0.00 39 1010.8
20260502222008 93 243 8.0 16.0 0.00 0.00 0.00 39 1010.8
20260502221528 93 242 9.0 15.0 0.00 0.00 0.00 38 1010.7
20260502221009 94 217 7.0 15.0 0.00 0.00 0.00 38 1010.7
20260502220508 94 225 8.0 15.0 0.00 0.00 0.00 39 1010.7
20260502220033 94 234 4.0 15.0 0.00 0.00 0.00 39 1010.8
20260502215512 94 216 8.0 17.0 0.00 0.00 0.00 39 1010.7
20260502215007 94 253 12.0 17.0 0.00 0.00 0.00 38 1010.7
20260502214522 94 234 10.0 17.0 0.00 0.00 0.00 38 1010.6
20260502214011 94 250 10.0 17.0 0.00 0.00 0.00 38 1010.6
20260502213511 95 245 9.0 16.0 0.00 0.00 0.00 37 1010.5
20260502213025 95 241 7.0 17.0 0.00 0.00 0.00 37 1010.5
20260502212512 95 241 8.0 17.0 0.00 0.00 0.00 36 1010.4
20260502212013 95 238 6.0 16.0 0.00 0.00 0.00 36 1010.3
20260502211528 95 246 9.0 17.0 0.00 0.00 0.00 36 1010.3
20260502211006 95 205 8.0 17.0 0.00 0.00 0.00 36 1010.3
20260502210510 95 263 7.0 17.0 0.00 0.00 0.00 36 1010.2
20260502210015 96 248 10.0 17.0 0.00 0.00 0.00 36 1010.2
20260502205506 95 254 8.0 17.0 0.00 0.00 0.00 37 1010.3
20260502205004 95 225 6.0 19.0 0.00 0.00 0.00 37 1010.4
20260502204509 96 260 9.0 19.0 0.00 0.00 0.00 36 1010.4
20260502204003 96 218 7.0 17.0 0.00 0.00 0.00 36 1010.4
20260502203504 95 235 7.0 17.0 0.00 0.00 0.00 36 1010.3
20260502203004 96 273 7.0 16.0 0.00 0.00 0.00 36 1010.2
20260502202504 96 247 6.0 19.0 0.00 0.00 0.00 38 1010.2
20260502202004 96 227 7.0 19.0 0.00 0.00 0.00 38 1010.2
20260502201509 96 227 8.0 23.0 0.00 0.00 0.00 37 1010.3
20260502201003 95 186 12.0 23.0 0.00 0.00 0.00 39 1010.5
20260502200503 95 281 11.0 20.0 0.00 0.00 0.00 36 1010.6
20260502200012 96 255 6.0 19.0 0.00 0.00 0.00 37 1010.7
20260502195505 95 204 6.0 19.0 0.00 0.00 0.00 38 1010.8
20260502195008 95 262 11.0 19.0 0.00 0.00 0.00 39 1010.7
20260502194523 95 215 9.0 19.0 0.00 0.00 0.00 40 1010.7
20260502194008 95 246 11.0 20.0 0.00 0.00 0.00 40 1010.7
20260502193506 95 227 9.0 21.0 0.00 0.00 0.00 41 1010.7
20260502193006 95 230 11.0 21.0 0.00 0.00 0.00 38 1010.8
20260502192502 95 243 8.0 18.0 0.00 0.00 0.00 41 1011.0
20260502192005 95 221 7.0 18.0 0.00 0.00 0.00 41 1011.0
20260502191504 95 234 8.0 18.0 0.00 0.00 0.00 43 1011.1
20260502191003 95 225 10.0 18.0 0.00 0.00 0.00 44 1011.0
20260502190503 95 222 4.0 20.0 0.00 0.00 0.00 42 1011.0
20260502190008 95 280 11.0 20.0 0.00 0.00 0.00 45 1011.0
20260502185507 95 267 10.0 19.0 0.00 0.00 0.00 44 1011.1
20260502185004 96 239 6.0 17.0 0.00 0.00 0.00 44 1011.0
20260502184512 95 255 9.0 17.0 0.00 0.00 0.00 45 1011.0
20260502184008 96 222 7.0 17.0 0.00 0.00 0.00 43 1011.1
20260502183507 96 242 9.0 16.0 0.00 0.00 0.00 43 1011.1
20260502183020 95 182 7.0 16.0 0.00 0.00 0.00 43 1011.2
20260502182508 96 234 6.0 18.0 0.00 0.00 0.00 43 1011.3
20260502182009 96 215 9.0 19.0 0.00 0.00 0.00 42 1011.3
20260502181504 96 230 9.0 19.0 0.00 0.00 0.00 42 1011.3
20260502181005 95 247 7.0 19.0 0.00 0.00 0.00 44 1011.3
20260502180503 95 231 12.0 19.0 0.00 0.00 0.00 42 1011.4
20260502170510 91 202 6.0 16.0 0.00 0.00 0.00 56 1011.6
20260502164007 93 229 8.0 18.0 0.00 0.00 0.00 53 1011.9
20260502163507 93 190 3.0 18.0 0.00 0.00 0.00 55 1011.8
20260502163014 93 244 5.0 15.0 0.00 0.00 0.00 54 1011.9
20260502162507 93 181 6.0 15.0 0.00 0.00 0.00 55 1011.9
20260502162012 92 200 6.0 15.0 0.00 0.00 0.00 56 1012.0
20260502161519 92 186 4.0 16.0 0.00 0.00 0.00 59 1012.0
20260502161009 91 180 5.0 16.0 0.00 0.00 0.00 60 1012.0
20260502160509 91 179 6.0 13.0 0.00 0.00 0.00 60 1012.1
20260502152007 89 203 7.0 16.0 0.00 0.00 0.00 62 1012.4
20260502151516 89 167 10.0 16.0 0.00 0.00 0.00 63 1012.5
20260502151007 89 170 7.0 12.0 0.00 0.00 0.00 64 1012.4
20260502150508 88 192 5.0 12.0 0.00 0.00 0.00 64 1012.4
20260502130503 84 180 6.0 14.0 0.00 0.00 0.00 74 1011.9
20260502123513 82 204 3.0 11.0 0.00 0.00 0.00 79 1012.1
20260502123025 82 175 4.0 11.0 0.00 0.00 0.00 80 1012.0
20260502122511 82 178 5.0 9.0 0.00 0.00 0.00 81 1011.9
20260502122011 82 193 4.0 8.0 0.00 0.00 0.00 82 1011.9
20260502121528 81 165 3.0 9.0 0.00 0.00 0.00 83 1011.9
20260502121010 81 165 3.0 9.0 0.00 0.00 0.00 83 1011.9
20260502120507 80 179 2.0 6.0 0.00 0.00 0.00 84 1012.0
20260502115505 79 186 2.0 5.0 0.00 0.00 0.00 86 1011.8
20260502115007 79 188 1.0 4.0 0.00 0.00 0.00 86 1011.8
20260502114521 78 188 1.0 3.0 0.00 0.00 0.00 86 1011.8
20260502114008 78 188 1.0 3.0 0.00 0.00 0.00 86 1011.9
20260502113508 77 188 0.0 2.0 0.00 0.00 0.00 86 1011.8
20260502113022 77 188 0.0 2.0 0.00 0.00 0.00 86 1011.9
20260502112507 77 186 0.0 1.0 0.00 0.00 0.00 86 1011.9
20260502112012 76 186 0.0 1.0 0.00 0.00 0.00 86 1011.9
20260502111524 76 186 0.0 1.0 0.00 0.00 0.00 86 1011.9
20260502111007 76 186 0.0 0.0 0.00 0.00 0.00 85 1011.9
20260502110507 76 186 0.0 1.0 0.00 0.00 0.00 85 1011.9
20260502110026 76 186 0.0 1.0 0.00 0.00 0.00 85 1011.9
20260502105512 76 186 0.0 1.0 0.00 0.00 0.00 85 1011.9
20260502105010 76 121 0.0 0.0 0.00 0.00 0.00 84 1011.9
20260502104535 76 121 0.0 1.0 0.00 0.00 0.00 84 1011.9
20260502104008 76 121 0.0 1.0 0.00 0.00 0.00 84 1011.8
20260502103508 76 121 0.0 0.0 0.00 0.00 0.00 84 1011.8
20260502103022 76 170 0.0 1.0 0.00 0.00 0.00 84 1011.8
20260502102509 76 170 0.0 1.0 0.00 0.00 0.00 84 1011.7
20260502102009 76 170 0.0 1.0 0.00 0.00 0.00 84 1011.8
20260502101523 76 170 0.0 1.0 0.00 0.00 0.00 84 1011.9
20260502101009 76 170 0.0 1.0 0.00 0.00 0.00 84 1011.9
20260502100509 76 170 0.0 1.0 0.00 0.00 0.00 84 1012.0
20260502091527 76 170 0.0 2.0 0.00 0.00 0.00 85 1011.8
20260502091010 76 170 0.0 4.0 0.00 0.00 0.00 85 1011.8
20260502090509 76 170 0.0 4.0 0.00 0.00 0.00 85 1011.9
20260502071512 77 170 0.0 0.0 0.00 0.00 0.00 86 1011.9
20260502071004 77 170 0.0 0.0 0.00 0.00 0.00 85 1011.7
20260502070507 77 170 0.0 0.0 0.00 0.00 0.00 85 1011.7
20260502070004 77 170 0.0 0.0 0.00 0.00 0.00 85 1011.7
20260502065504 77 170 0.0 0.0 0.00 0.00 0.00 86 1011.8
20260502065003 77 170 0.0 0.0 0.00 0.00 0.00 85 1011.8
20260502064507 77 170 0.0 0.0 0.00 0.00 0.00 85 1011.9
20260502064003 77 170 0.0 0.0 0.00 0.00 0.00 85 1011.9
20260502063504 77 170 0.0 0.0 0.00 0.00 0.00 85 1011.9
20260502063012 77 170 0.0 0.0 0.00 0.00 0.00 85 1011.9
20260502062507 77 170 0.0 0.0 0.00 0.00 0.00 84 1012.0
20260502062006 78 170 0.0 0.0 0.00 0.00 0.00 84 1012.0
20260502061525 78 170 0.0 2.0 0.00 0.00 0.00 84 1012.0
20260502061006 78 170 0.0 2.0 0.00 0.00 0.00 84 1012.0
20260502060507 78 170 0.0 2.0 0.00 0.00 0.00 84 1012.0
20260502060015 78 170 0.0 2.0 0.00 0.00 0.00 84 1012.0
20260502055506 78 170 0.0 4.0 0.00 0.00 0.00 84 1011.9
20260502055007 78 170 0.0 4.0 0.00 0.00 0.00 84 1011.9
20260502054503 78 170 0.0 4.0 0.00 0.00 0.00 84 1011.9
20260502054003 78 170 1.0 4.0 0.00 0.00 0.00 84 1011.9
20260502053503 78 170 1.0 4.0 0.00 0.00 0.00 84 1011.9
20260502053006 78 170 0.0 2.0 0.00 0.00 0.00 83 1012.0
20260502052506 78 170 0.0 2.0 0.00 0.00 0.00 83 1012.0
20260502052007 78 170 1.0 2.0 0.00 0.00 0.00 83 1012.1
20260502051522 78 170 0.0 2.0 0.00 0.00 0.00 82 1012.1
20260502051004 78 170 0.0 2.0 0.00 0.00 0.00 82 1012.2
20260502050507 78 170 0.0 2.0 0.00 0.00 0.00 82 1012.2
20260502050020 78 170 0.0 2.0 0.00 0.00 0.00 82 1012.3
20260502045507 78 170 0.0 2.0 0.00 0.00 0.00 81 1012.3
20260502045008 79 170 0.0 2.0 0.00 0.00 0.00 81 1012.3
20260502044519 79 170 1.0 2.0 0.00 0.00 0.00 81 1012.4